Theta_e
343 342 336 331 329 331 331 331 330 329 327 327 327 328 330 330 326 323 318 316 316 321 324 320 317 318 317 317 317 318 321 322 324 326 327 328 328 328 329 328 329 331 325
343 342 336 331 330 332 332 332 332 331 330 329 331 332 330 325 321 316 313 315 321 326 322 312 310 309 308 308 308 308 310 313 316 321 325 328 329 327 329 328 327 328 325
343 342 338 331 331 332 332 333 333 333 331 332 332 329 324 320 315 312 313 315 319 324 321 312 308 308 308 309 311 312 312 311 310 315 325 328 329 328 328 328 326 327 325
343 342 339 332 332 332 332 334 334 333 332 333 329 324 320 317 314 312 314 314 314 311 309 309 308 309 312 313 313 314 313 313 315 318 320 327 330 329 326 326 327 326 325
343 341 340 334 333 333 334 334 335 334 333 330 325 321 318 317 313 310 310 309 310 313 314 315 315 315 313 311 310 310 311 313 319 321 321 324 327 329 325 324 328 329 325
342 342 337 335 335 334 334 335 335 333 332 328 322 320 318 317 311 308 307 312 316 316 316 315 315 314 316 315 314 313 311 311 318 319 321 323 326 330 331 325 326 325 325
339 341 336 336 335 335 335 336 335 333 332 326 321 319 317 314 308 309 312 316 316 316 315 315 315 316 317 316 316 315 315 316 315 315 315 319 322 326 332 326 324 326 325
340 340 338 336 336 336 336 336 334 333 330 323 321 318 316 311 315 315 316 317 318 317 316 316 316 316 316 316 316 315 314 315 317 316 315 316 312 323 329 330 324 322 318
340 340 338 337 337 336 336 335 334 331 326 322 320 316 313 317 319 318 318 318 318 317 317 317 317 317 317 317 317 317 317 316 319 318 316 316 313 319 324 328 326 322 317
340 340 339 338 338 337 337 332 333 329 324 322 319 318 318 321 320 320 320 319 318 317 317 317 317 317 318 318 318 318 317 319 319 318 318 317 315 315 323 321 318 319 314
339 338 337 337 336 336 336 333 330 326 322 319 321 322 324 326 326 325 321 318 317 317 318 318 319 318 318 323 322 318 317 317 318 317 317 317 316 316 315 321 318 317 318
338 338 337 336 335 335 333 332 330 327 326 326 327 329 327 330 328 327 323 318 317 318 319 319 318 320 322 320 319 317 316 317 316 316 316 315 315 316 317 317 319 320 319
335 336 336 333 332 333 330 328 325 324 326 327 330 330 330 330 329 327 325 325 325 321 322 319 319 318 319 318 316 316 315 313 312 312 313 307 309 311 313 315 318 321 322
333 334 333 331 331 330 326 325 326 326 328 329 330 331 330 328 325 326 323 323 323 321 318 317 317 317 316 315 315 314 312 311 310 311 312 309 304 306 308 310 312 318 319
330 331 330 328 328 326 327 327 328 329 330 331 331 331 326 324 321 325 323 320 318 317 316 316 315 314 312 311 311 311 310 309 309 310 311 310 305 303 304 306 309 312 317
329 329 328 326 326 329 329 330 326 324 323 323 329 327 324 320 318 319 319 316 316 315 314 313 311 310 309 309 308 309 308 308 307 309 309 310 307 305 304 304 306 307 310
329 328 327 327 329 327 325 325 322 322 321 321 323 324 325 322 321 316 315 316 314 312 311 310 309 309 309 308 308 307 307 307 306 309 309 308 307 307 305 306 306 306 306
329 328 326 327 326 321 321 320 320 320 320 320 318 319 318 316 311 312 313 311 308 308 309 309 308 308 307 307 306 306 306 305 305 309 308 308 307 307 307 306 304 304 304
329 328 328 326 322 320 320 321 321 317 315 314 312 310 309 308 307 309 310 309 309 308 308 307 306 305 305 305 305 304 304 305 305 306 307 307 307 306 306 305 303 302 301
330 329 327 325 322 324 324 321 317 314 312 311 309 309 309 309 309 310 310 309 307 306 306 305 305 305 305 305 304 304 305 303 303 305 306 305 304 303 303 303 302 302 300
330 329 327 326 325 325 322 321 318 317 314 310 309 308 308 307 307 307 307 307 307 307 307 306 305 304 304 304 302 302 301 300 302 303 303 301 301 302 300 300 299 299 298
328 327 327 326 325 321 320 318 318 317 313 309 308 307 307 306 306 306 307 307 306 306 306 306 304 302 302 302 302 300 301 300 299 301 300 299 299 299 297 297 296 296 295
329 328 327 324 319 317 316 315 313 312 311 311 309 308 307 306 306 305 306 305 305 305 304 304 303 302 301 300 299 299 300 300 297 297 298 296 297 295 295 294 294 293 293
329 326 321 317 315 312 311 312 312 311 311 308 307 307 307 306 306 305 305 304 304 303 302 303 301 300 298 298 297 296 296 296 298 297 295 295 293 293 292 292 293 291 291
317 316 314 312 310 310 310 310 310 309 307 307 306 305 305 304 304 303 303 302 302 301 302 302 300 298 297 296 296 295 295 294 293 293 294 293 292 292 291 291 290 291 291
313 312 311 310 309 308 308 307 307 306 304 302 299 299 297 296 296 297 298 301 302 302 302 300 297 297 295 294 293 292 292 292 292 291 293 292 291 291 291 290 290 290 290
Wind_Speed
20 23 23 23 24 24 23 21 21 19 18 16 15 14 14 12 10 9 9 9 11 12 12 12 12 11 12 12 13 12 13 13 12 10 8 9 9 9 9 11 10 9 12
21 22 23 23 23 23 23 21 19 17 16 15 14 12 11 10 9 8 9 10 12 12 12 12 12 13 13 14 14 15 15 14 13 12 11 9 8 9 7 9 10 9 10
21 21 22 23 23 22 21 20 18 16 15 13 12 11 10 9 8 9 10 11 11 10 11 11 12 14 14 15 15 15 16 16 15 14 14 8 7 10 10 9 9 10 9
21 22 22 23 22 22 20 17 16 15 14 12 10 10 9 8 9 10 11 10 10 9 10 10 12 12 14 16 15 15 16 17 16 16 11 10 8 9 7 8 10 9 5
20 22 22 23 22 21 18 16 13 13 12 10 9 9 8 8 10 10 10 10 8 8 9 10 13 14 15 17 18 17 17 17 17 13 11 11 9 9 8 8 8 6 3
20 20 22 22 20 18 17 15 14 13 11 10 9 9 7 8 9 10 9 9 9 10 11 14 14 14 15 16 18 19 19 18 15 12 11 11 10 10 10 7 7 7 6
17 17 21 18 16 16 14 13 13 12 9 8 8 8 7 8 9 9 10 10 11 12 13 14 13 13 14 15 16 17 18 18 15 13 11 10 10 11 9 8 6 4 4
16 16 18 15 15 13 11 11 10 9 8 7 7 6 7 9 9 9 10 10 9 11 11 11 11 11 11 12 13 15 16 15 13 13 12 10 12 11 8 7 5 5 6
17 16 16 15 14 12 9 9 8 6 6 5 5 5 7 8 8 9 8 7 7 7 7 7 7 7 7 8 9 10 11 14 13 12 10 10 13 11 9 7 6 5 7
14 14 14 13 11 10 10 6 5 5 4 3 4 6 7 6 6 6 6 3 4 3 3 3 4 4 4 6 9 12 13 12 13 11 9 8 11 11 9 8 7 7 8
14 13 11 11 10 9 9 7 3 2 3 3 3 4 5 3 2 1 1 2 1 1 1 4 6 7 8 10 13 14 14 15 13 12 11 10 12 10 8 8 9 9 10
14 11 10 9 8 8 6 7 6 5 3 3 3 2 2 2 2 3 3 2 3 3 3 5 6 8 9 11 12 14 14 13 11 11 9 11 12 12 11 10 9 10 11
13 10 9 9 9 7 7 7 7 5 5 4 3 2 2 4 5 6 4 4 4 4 4 6 6 7 10 11 12 11 11 11 10 10 9 12 11 12 12 12 11 10 10
13 11 10 9 9 8 8 9 8 7 5 5 2 3 3 5 7 8 6 5 3 4 4 6 7 8 9 10 8 8 8 9 10 11 10 12 12 12 12 12 13 13 12
14 13 11 10 11 9 10 9 7 5 2 1 2 4 3 1 8 11 9 6 4 4 5 7 8 10 11 11 9 9 9 9 10 11 11 13 12 12 12 12 12 12 13
15 14 13 13 14 14 13 10 8 7 7 6 3 4 4 5 5 16 12 8 5 4 6 8 10 11 11 11 11 11 11 11 11 11 12 11 13 12 11 12 11 11 11
16 17 16 17 16 15 13 11 9 9 11 7 5 5 12 10 9 14 9 7 5 4 5 7 8 9 11 12 13 14 14 13 13 11 11 12 12 13 12 9 8 10 11
18 18 18 17 15 11 7 14 9 14 7 3 8 7 5 6 6 6 5 4 4 5 5 6 8 10 12 13 14 15 16 15 14 13 13 13 14 15 15 15 13 12 12
19 20 19 17 15 8 2 8 1 5 6 5 6 5 4 4 4 1 2 2 4 5 6 7 9 10 11 13 15 18 19 20 21 21 18 15 12 10 12 13 16 15 17
19 19 18 15 13 7 2 2 7 7 5 6 5 5 4 3 3 2 3 4 5 7 8 9 10 12 13 14 17 21 20 22 22 20 15 14 13 12 12 13 15 15 18
20 20 19 15 9 5 5 7 6 3 3 4 4 5 4 3 4 4 4 6 8 10 11 11 13 16 16 14 19 19 20 21 12 16 15 16 16 14 16 17 18 19 21
21 18 14 12 10 9 8 6 2 2 4 5 4 3 4 5 5 7 9 11 12 15 15 13 11 12 13 10 15 20 10 17 18 11 18 19 18 17 21 20 20 20 21
18 16 14 13 12 8 4 3 4 5 4 1 3 4 5 7 9 10 11 12 13 14 16 11 8 8 11 12 10 12 9 11 20 22 15 20 17 20 20 20 20 20 20
15 14 16 15 9 6 5 7 8 6 4 4 5 6 8 10 12 14 15 15 15 15 14 10 8 6 7 12 14 15 14 16 11 12 21 21 23 20 21 20 19 21 21
16 16 15 14 11 10 11 10 8 7 6 5 7 11 13 15 16 18 18 18 18 15 12 8 6 6 10 11 18 16 16 16 16 14 12 18 21 19 19 18 20 19 22
14 14 14 15 14 13 13 12 11 9 8 9 11 13 15 18 19 19 19 19 17 13 9 6 4 7 11 12 11 11 12 13 14 15 12 17 19 22 19 21 19 21 22
Wind_Direction
154 156 161 160 153 147 141 134 129 127 124 122 121 115 109 107 104 96 82 71 71 70 69 64 58 51 46 40 36 31 28 24 16 6 3 7 5 25 27 24 36 18 18
149 153 161 163 158 149 142 138 134 131 129 129 122 115 112 110 101 93 87 83 80 72 69 64 58 50 44 41 36 32 30 25 19 19 20 18 5 17 28 17 9 15 15
148 152 159 164 160 152 148 142 137 134 133 128 120 117 114 106 101 96 94 88 79 70 64 58 53 49 45 42 35 34 30 29 24 28 33 18 19 29 40 25 16 4 1
148 154 160 164 163 156 151 142 141 139 136 129 124 122 115 107 105 100 95 90 81 71 63 55 54 52 49 42 32 27 27 24 29 38 25 20 23 27 20 21 1 355 3
159 157 159 165 167 161 148 147 145 145 137 131 127 124 114 107 104 104 98 89 83 77 71 65 65 63 55 48 43 36 29 28 35 27 26 24 24 17 19 18 18 26 35
157 153 160 166 169 157 155 152 150 144 141 137 135 129 118 109 107 102 99 93 86 86 82 80 80 69 59 52 47 42 37 34 33 25 26 25 28 29 27 30 36 62 52
153 145 154 166 161 160 157 152 147 144 143 144 138 129 120 118 111 108 105 101 92 87 83 82 77 65 56 50 43 38 33 30 27 24 18 21 18 26 29 28 34 33 18
142 146 159 166 162 163 157 145 145 147 149 143 129 123 122 116 109 110 112 109 94 81 79 75 66 60 53 44 37 32 23 24 14 15 20 26 11 24 21 19 27 19 4
146 143 151 158 157 155 140 137 142 139 145 137 122 112 117 115 115 111 108 110 102 85 71 62 57 37 34 30 18 19 15 14 6 3 4 20 20 24 12 8 3 351 347
136 139 149 151 149 147 130 137 145 139 146 141 121 119 118 105 110 106 91 94 102 96 63 23 345 329 332 345 352 357 5 359 348 344 345 355 2 14 8 8 1 347 346
139 137 139 140 145 135 126 131 110 116 143 120 89 115 93 126 104 74 213 169 170 113 356 332 321 310 321 344 349 350 0 345 341 341 336 327 330 337 347 348 345 343 342
136 139 147 142 134 116 115 118 129 132 144 124 118 115 100 23 322 319 291 267 257 279 316 341 358 17 5 344 338 340 340 340 339 343 345 328 329 322 315 313 316 324 329
150 142 130 145 141 135 134 129 122 118 117 115 98 75 19 351 330 310 293 297 298 309 326 340 356 2 354 344 334 330 333 334 334 335 331 337 339 338 334 320 311 302 293
152 144 140 138 133 133 124 120 119 123 117 108 98 43 14 9 350 323 298 288 292 308 327 337 343 360 348 340 336 331 334 330 324 323 320 326 341 336 335 338 336 333 322
142 137 131 129 127 120 117 116 109 101 102 140 176 182 187 8 4 331 295 273 272 296 319 327 333 336 332 325 322 319 317 319 320 314 313 317 333 332 331 337 336 337 23
146 138 131 126 115 107 98 97 83 52 19 349 294 259 225 280 278 264 263 265 274 295 316 318 325 329 320 319 314 314 309 310 311 310 303 307 318 333 331 327 328 327 335
152 145 137 127 121 106 87 64 13 9 356 303 314 277 253 237 247 232 245 268 287 317 332 331 331 323 317 314 310 308 305 304 308 302 302 300 303 312 323 323 318 313 322
156 150 144 139 131 108 61 14 334 302 323 104 87 89 142 166 202 244 251 276 306 347 336 329 327 316 314 312 309 305 301 302 302 296 292 296 297 298 305 307 313 319 318
164 157 152 150 150 160 248 287 282 119 121 105 84 109 153 151 188 254 339 2 357 336 332 329 317 322 312 302 303 304 299 297 297 295 290 290 291 300 301 307 317 326 324
165 164 162 165 176 185 301 127 125 119 86 79 87 76 67 50 46 20 0 2 341 320 319 324 322 315 307 303 304 301 298 299 299 295 294 291 296 306 307 310 314 304 318
162 168 174 175 176 194 151 135 151 151 113 92 86 72 55 48 37 25 350 343 333 318 314 309 308 307 307 312 309 310 301 299 291 292 287 302 304 304 311 312 313 313 309
164 169 172 171 171 155 146 131 118 165 138 135 104 64 48 33 7 341 332 322 316 310 308 298 307 312 306 318 320 314 313 307 299 326 302 297 301 305 308 309 312 313 314
161 163 162 154 145 134 126 140 127 111 105 69 5 5 4 357 340 328 318 313 312 309 305 295 293 310 311 309 326 322 324 320 319 301 290 299 303 306 308 310 308 314 314
153 153 146 143 135 108 117 104 85 67 51 31 4 342 328 324 321 316 309 304 304 302 295 286 289 303 307 315 313 314 305 303 304 303 296 297 301 305 309 312 310 313 315
140 140 140 135 122 118 105 101 92 79 57 19 353 334 322 318 312 309 305 297 295 293 280 268 273 299 311 321 318 312 306 299 297 297 303 300 302 300 303 305 308 303 310
143 139 140 135 126 116 104 91 84 69 41 13 353 338 329 320 315 310 305 299 290 279 256 247 259 309 316 314 307 308 304 307 305 306 301 304 303 302 305 303 301 303 305